H1 CPF 2 NER 2024 9 16 9 260 01 glonass105 H2 0705202 9105 32276 2024 9 16 0 0 0 2024 9 19 23 45 0 900 1 1 0 0 0 1 H9 10 0 60569 0.00000 0 -5400063.272 12013669.947 21861184.167 10 0 60569 900.00000 0 -7830242.879 12987987.476 20529785.972 10 0 60569 1800.00000 0 -10007053.422 14068870.254 18800416.159 10 0 60569 2700.00000 0 -11887063.450 15203851.047 16706627.700 10 0 60569 3600.00000 0 -13438596.878 16334699.946 14289017.809 10 0 60569 4500.00000 0 -14642800.426 17399917.340 11594446.029 10 0 60569 5400.00000 0 -15494181.455 18337382.185 8675132.291 10 0 60569 6300.00000 0 -16000594.908 19087044.962 5587651.675 10 0 60569 7200.00000 0 -16182680.806 19593552.639 2391844.662 10 0 60569 8100.00000 0 -16072776.537 19808695.483 -850336.555 10 0 60569 9000.00000 0 -15713350.028 19693572.799 -4076023.837 10 0 60569 9900.00000 0 -15155019.888 19220386.081 -7222647.993 10 0 60569 10800.00000 0 -14454245.948 18373783.480 -10229149.421 10 0 60569 11700.00000 0 -13670787.453 17151698.057 -13037161.084 10 0 60569 12600.00000 0 -12865036.004 15565643.329 -15592140.850 10 0 60569 13500.00000 0 -12095335.637 13640452.250 -17844431.196 10 0 60569 14400.00000 0 -11415403.035 11413468.927 -19750225.709 10 0 60569 15300.00000 0 -10871956.753 8933225.217 -21272423.538 10 0 60569 16200.00000 0 -10502655.611 6257655.894 -22381355.136 10 0 60569 17100.00000 0 -10334433.520 3451925.255 -23055365.096 10 0 60569 18000.00000 0 -10382301.496 585954.433 -23281240.497 10 0 60569 18900.00000 0 -10648667.991 -2268248.809 -23054476.086 10 0 60569 19800.00000 0 -11123207.089 -5039347.581 -22379370.663 10 0 60569 20700.00000 0 -11783280.975 -7659406.542 -21268952.138 10 0 60569 21600.00000 0 -12594899.819 -10066482.518 -19744732.019 10 0 60569 22500.00000 0 -13514179.389 -12206967.372 -17836293.292 10 0 60569 23400.00000 0 -14489235.517 -14037585.513 -15580719.065 10 0 60569 24300.00000 0 -15462435.755 -15526962.727 -13021872.488 10 0 60569 25200.00000 0 -16372913.126 -16656700.866 -10209541.663 10 0 60569 26100.00000 0 -17159235.364 -17421913.681 -7198466.199 10 0 60569 27000.00000 0 -17762116.084 -17831201.906 -4047264.719 10 0 60569 27900.00000 0 -18127052.324 -17906069.532 -817284.844 10 0 60569 28800.00000 0 -18206775.817 -17679807.030 2428600.924 10 0 60569 29700.00000 0 -17963413.275 -17195890.082 5627228.852 10 0 60569 30600.00000 0 -17370263.435 -16505962.989 8716381.972 10 0 60569 31500.00000 0 -16413115.077 -15667493.573 11636007.161 10 0 60569 32400.00000 0 -15091049.922 -14741200.154 14329386.807 10 0 60569 33300.00000 0 -13416696.394 -13788360.508 16744241.706 10 0 60569 34200.00000 0 -11415923.534 -12868117.321 18833743.647 10 0 60569 35100.00000 0 -9126988.074 -12034894.188 20557418.279 10 0 60569 36000.00000 0 -6599170.471 -11336031.020 21881921.472 10 0 60569 36900.00000 0 -3890956.997 -10809737.907 22781675.048 10 0 60569 37800.00000 0 -1067843.523 -10483452.658 23239350.764 10 0 60569 38700.00000 0 1800148.008 -10372669.931 23246194.396 10 0 60569 39600.00000 0 4641137.852 -10480289.997 22802184.768 10 0 60569 40500.00000 0 7384131.726 -10796513.365 21916025.621 10 0 60569 41400.00000 0 9961726.510 -11299284.820 20604971.079 10 0 60569 42300.00000 0 12312667.537 -11955267.638 18894488.442 10 0 60569 43200.00000 0 14384152.923 -12721306.842 16817764.769 10 0 60569 44100.00000 0 16133790.771 -13546320.118 14415066.487 10 0 60569 45000.00000 0 17531129.321 -14373537.270 11732963.878 10 0 60569 45900.00000 0 18558697.649 -15142994.574 8823434.761 10 0 60569 46800.00000 0 19212514.628 -15794179.651 5742863.989 10 0 60569 47700.00000 0 19502045.729 -16268716.026 2550957.453 10 0 60569 48600.00000 0 19449610.140 -16512974.630 -690408.920 10 0 60569 49500.00000 0 19089263.442 -16480502.344 -3918383.392 10 0 60569 50400.00000 0 18465202.969 -16134164.993 -7070352.931 10 0 60569 51300.00000 0 17629762.934 -15447913.983 -10085154.672 10 0 60569 52200.00000 0 16641083.573 -14408101.278 -12904260.902 10 0 60569 53100.00000 0 15560552.311 -13014286.165 -15472914.523 10 0 60569 54000.00000 0 14450124.511 -11279498.429 -17741192.961 10 0 60569 54900.00000 0 13369636.461 -9229945.154 -19664979.822 10 0 60569 55800.00000 0 12374223.677 -6904171.654 -21206825.352 10 0 60569 56700.00000 0 11511953.166 -4351709.749 -22336678.932 10 0 60569 57600.00000 0 10821769.392 -1631268.048 -23032479.260 10 0 60569 58500.00000 0 10331840.638 1191461.904 -23280590.499 10 0 60569 59400.00000 0 10058375.654 4046293.642 -23076075.623 10 0 60569 60300.00000 0 10004960.883 6861225.561 -22422801.119 10 0 60569 61200.00000 0 10162446.683 9565201.721 -21333370.419 10 0 60569 62100.00000 0 10509387.895 12090839.338 -19828886.623 10 0 60569 63000.00000 0 11013020.674 14377009.647 -17938548.371 10 0 60569 63900.00000 0 11630734.767 16371164.571 -15699086.012 10 0 60569 64800.00000 0 12311979.211 18031312.075 -13154048.498 10 0 60569 65700.00000 0 13000520.834 19327557.549 -10352954.520 10 0 60569 66600.00000 0 13636959.631 20243146.725 -7350324.436 10 0 60569 67500.00000 0 14161393.860 20774966.662 -4204612.149 10 0 60569 68400.00000 0 14516121.104 20933484.308 -977058.392 10 0 60569 69300.00000 0 14648259.802 20742126.095 2269511.261 10 0 60569 70200.00000 0 14512179.120 20236125.898 5471919.152 10 0 60569 71100.00000 0 14071633.235 19460891.346 8567873.858 10 0 60569 72000.00000 0 13301508.851 18469958.951 11497188.853 10 0 60569 72900.00000 0 12189111.452 17322625.849 14202956.913 10 0 60569 73800.00000 0 10734935.568 16081359.405 16632656.895 10 0 60569 74700.00000 0 8952886.418 14809094.917 18739171.183 10 0 60569 75600.00000 0 6869943.559 13566535.877 20481694.329 10 0 60569 76500.00000 0 4525280.622 12409570.497 21826515.921 10 0 60569 77400.00000 0 1968877.973 11386912.772 22747663.467 10 0 60569 78300.00000 0 -740313.984 10538066.312 23227393.977 10 0 60569 79200.00000 0 -3536584.686 9891695.216 23256526.005 10 0 60569 80100.00000 0 -6349955.181 9464468.971 22834606.841 10 0 60569 81000.00000 0 -9108849.136 9260428.340 21969912.576 10 0 60569 81900.00000 0 -11742833.394 9270897.527 20679281.732 10 0 60569 82800.00000 0 -14185315.570 9474945.178 18987785.975 10 0 60569 83700.00000 0 -16376088.213 9840374.125 16928244.310 10 0 60569 84600.00000 0 -18263615.259 10325197.863 14540589.787 10 0 60569 85500.00000 0 -19806967.073 10879541.643 11871100.492 10 0 60570 0.00000 0 -20977324.664 11447888.342 8971509.225 10 0 60570 900.00000 0 -21758991.927 11971575.221 5898006.788 10 0 60570 1800.00000 0 -22149872.947 12391436.021 2710161.420 10 0 60570 2700.00000 0 -22161397.009 12650478.377 -530230.485 10 0 60570 3600.00000 0 -21817893.150 12696483.016 -3760336.738 10 0 60570 4500.00000 0 -21155441.256 12484415.315 -6917503.462 10 0 60570 5400.00000 0 -20220247.830 11978547.044 -9940467.340 10 0 60570 6300.00000 0 -19066614.454 11154198.091 -12770542.555 10 0 60570 7200.00000 0 -17754584.172 9999023.720 -15352759.351 10 0 60570 8100.00000 0 -16347364.432 8513791.773 -17636932.075 10 0 60570 9000.00000 0 -14908634.691 6712615.504 -19578635.960 10 0 60570 9900.00000 0 -13499851.611 4622630.409 -21140073.567 10 0 60570 10800.00000 0 -12177664.889 2283126.632 -22290814.012 10 0 60570 11700.00000 0 -10991552.174 -255828.752 -23008390.508 10 0 60570 12600.00000 0 -9981772.415 -2935223.886 -23278744.344 10 0 60570 13500.00000 0 -9177723.632 -5689313.985 -23096506.397 10 0 60570 14400.00000 0 -8596774.284 -8448122.129 -22465110.180 10 0 60570 15300.00000 0 -8243617.537 -11140125.891 -21396733.657 10 0 60570 16200.00000 0 -8110175.817 -13695018.638 -19912070.232 10 0 60570 17100.00000 0 -8176059.867 -16046430.854 -18039932.616 10 0 60570 18000.00000 0 -8409563.039 -18134498.070 -15816696.577 10 0 60570 18900.00000 0 -8769148.820 -19908168.113 -13285594.846 10 0 60570 19800.00000 0 -9205368.479 -21327151.004 -10495874.531 10 0 60570 20700.00000 0 -9663127.233 -22363429.650 -7501834.477 10 0 60570 21600.00000 0 -10084202.225 -23002267.946 -4361761.563 10 0 60570 22500.00000 0 -10409904.674 -23242674.125 -1136787.315 10 0 60570 23400.00000 0 -10583772.237 -23097300.377 2110311.949 10 0 60570 24300.00000 0 -10554176.255 -22591783.800 5316346.963 10 0 60570 25200.00000 0 -10276732.242 -21763557.573 8418954.176 10 0 60570 26100.00000 0 -9716410.506 -20660183.820 11357815.967 10 0 60570 27000.00000 0 -8849256.796 -19337279.846 14075837.789 10 0 60570 27900.00000 0 -7663649.667 -17856126.495 16520258.766 10 0 60570 28800.00000 0 -6161041.222 -16281060.461 18643673.971 10 0 60570 29700.00000 0 -4356149.841 -14676761.036 20404948.778 10 0 60570 30600.00000 0 -2276596.730 -13105545.577 21770008.207 10 0 60570 31500.00000 0 37998.533 -11624787.081 22712486.899 10 0 60570 32400.00000 0 2537425.830 -10284561.387 23214228.305 10 0 60570 33300.00000 0 5162737.290 -9125621.477 23265624.662 10 0 60570 34200.00000 0 7848468.408 -8177782.218 22865792.329 10 0 60570 35100.00000 0 10525135.894 -7458781.539 22022580.078 10 0 60570 36000.00000 0 13121909.505 -6973664.026 20752410.847 10 0 60570 36900.00000 0 15569348.020 -6714711.287 19079960.384 10 0 60570 37800.00000 0 17802087.053 -6661920.688 17037679.009 10 0 60570 38700.00000 0 19761368.311 -6784011.487 14665165.396 10 0 60570 39600.00000 0 21397306.362 -7039915.536 12008404.011 10 0 60570 40500.00000 0 22670799.628 -7380689.631 9118880.237 10 0 60570 41400.00000 0 23555006.860 -7751769.083 6052589.561 10 0 60570 42300.00000 0 24036328.112 -8095467.739 2868959.319 10 0 60570 43200.00000 0 24114849.635 -8353619.259 -370296.728 10 0 60570 44100.00000 0 23804234.260 -8470248.408 -3602369.298 10 0 60570 45000.00000 0 23131061.853 -8394159.574 -6764567.154 10 0 60570 45900.00000 0 22133647.339 -8081333.022 -9795530.012 10 0 60570 46800.00000 0 20860385.576 -7497027.181 -12636417.318 10 0 60570 47700.00000 0 19367692.217 -6617497.432 -15232049.803 10 0 60570 48600.00000 0 17717626.582 -5431257.744 -17531981.624 10 0 60570 49500.00000 0 15975295.905 -3939830.539 -19491482.222 10 0 60570 50400.00000 0 14206149.508 -2157951.492 -21072408.733 10 0 60570 51300.00000 0 12473276.071 -113218.744 -22243951.943 10 0 60570 52200.00000 0 10834817.016 2154800.834 -22983241.157 10 0 60570 53100.00000 0 9341604.296 4595972.912 -23275796.000 10 0 60570 54000.00000 0 8035121.429 7151447.829 -23115816.060 10 0 60570 54900.00000 0 6945873.186 9755887.937 -22506302.279 10 0 60570 55800.00000 0 6092232.316 12339978.527 -21459007.123 10 0 60570 56700.00000 0 5479811.662 14833118.600 -19994213.830 10 0 60570 57600.00000 0 5101387.979 17166179.810 -18140348.263 10 0 60570 58500.00000 0 4937380.557 19274218.608 -15933430.238 10 0 60570 59400.00000 0 4956864.162 21099028.184 -13416374.424 10 0 60570 60300.00000 0 5119073.118 22591423.187 -10638154.065 10 0 60570 61200.00000 0 5375332.313 23713161.090 -7652843.780 10 0 60570 62100.00000 0 5671332.540 24438419.328 -4518560.337 10 0 60570 63000.00000 0 5949652.730 24754765.973 -1296322.671 10 0 60570 63900.00000 0 6152420.963 24663583.259 1951145.732 10 0 60570 64800.00000 0 6224000.127 24179926.564 5160647.650 10 0 60570 65700.00000 0 6113583.112 23331825.568 8269751.001 10 0 60570 66600.00000 0 5777586.395 22159058.071 11218010.517 10 0 60570 67500.00000 0 5181739.731 20711449.336 13948147.522 10 0 60570 68400.00000 0 4302782.845 19046769.801 16407164.316 10 0 60570 69300.00000 0 3129697.029 17228320.747 18547371.236 10 0 60570 70200.00000 0 1664419.495 15322310.211 20327306.714 10 0 60570 71100.00000 0 -77989.697 13395129.739 21712533.079 10 0 60570 72000.00000 0 -2069735.172 11510646.123 22676293.632 10 0 60570 72900.00000 0 -4271212.118 9727620.964 23200019.396 10 0 60570 73800.00000 0 -6632432.068 8097364.960 23273677.004 10 0 60570 74700.00000 0 -9094889.500 6661723.582 22895952.144 10 0 60570 75600.00000 0 -11593792.170 5451476.557 22074266.015 10 0 60570 76500.00000 0 -14060563.253 4485216.216 20824625.190 10 0 60570 77400.00000 0 -16425512.263 3768749.790 19171308.161 10 0 60570 78300.00000 0 -18620564.882 3295049.011 17146394.671 10 0 60570 79200.00000 0 -20581939.372 3044747.752 14789146.624 10 0 60570 80100.00000 0 -22252659.306 2987165.836 12145252.032 10 0 60570 81000.00000 0 -23584798.984 3081815.341 9265945.958 10 0 60570 81900.00000 0 -24541368.703 3280325.740 6207024.638 10 0 60570 82800.00000 0 -25097761.709 3528706.729 3027771.232 10 0 60570 83700.00000 0 -25242702.665 3769853.423 -210186.687 10 0 60570 84600.00000 0 -24978657.995 3946188.340 -3444066.245 10 0 60570 85500.00000 0 -24321690.731 4002328.684 -6611142.236 10 0 60571 0.00000 0 -23300765.705 3887666.153 -9649960.362 10 0 60571 900.00000 0 -21956533.142 3558749.913 -12501528.887 10 0 60571 1800.00000 0 -20339642.542 2981371.654 -15110461.486 10 0 60571 2700.00000 0 -18508655.158 2132263.616 -17426054.511 10 0 60571 3600.00000 0 -16527643.262 1000336.875 -19403273.576 10 0 60571 4500.00000 0 -14463575.772 -412593.841 -21003631.882 10 0 60571 5400.00000 0 -12383599.292 -2091631.044 -22195942.837 10 0 60571 6300.00000 0 -10352327.917 -4009170.581 -22956932.259 10 0 60571 7200.00000 0 -8429254.877 -6125819.122 -23271697.997 10 0 60571 8100.00000 0 -6666393.980 -8391816.625 -23134007.768 10 0 60571 9000.00000 0 -5106249.305 -10748906.063 -22546428.913 10 0 60571 9900.00000 0 -3780197.948 -13132573.767 -21520287.012 10 0 60571 10800.00000 0 -2707353.367 -15474567.970 -20075453.430 10 0 60571 11700.00000 0 -1893956.754 -17705591.104 -18239965.230 10 0 60571 12600.00000 0 -1333321.732 -19758053.638 -16049484.123 10 0 60571 13500.00000 0 -1006334.222 -21568774.262 -13546604.432 10 0 60571 14400.00000 0 -882485.866 -23081513.073 -10780023.168 10 0 60571 15300.00000 0 -921396.592 -24249231.032 -7803588.319 10 0 60571 16200.00000 0 -1074760.980 -25035980.319 -4675244.154 10 0 60571 17100.00000 0 -1288634.883 -25418345.715 -1455894.668 10 0 60571 18000.00000 0 -1505964.123 -25386376.086 1791791.774 10 0 60571 18900.00000 0 -1669246.652 -24943966.816 5004612.212 10 0 60571 19800.00000 0 -1723213.963 -24108677.436 8120068.192 10 0 60571 20700.00000 0 -1617416.789 -22910992.823 11077588.870 10 0 60571 21600.00000 0 -1308604.481 -21393060.013 13819713.437 10 0 60571 22500.00000 0 -762796.564 -19606954.815 16293209.245 10 0 60571 23400.00000 0 43041.645 -17612552.157 18450103.629 10 0 60571 24300.00000 0 1119790.319 -15475090.453 20248609.630 10 0 60571 25200.00000 0 2465484.320 -13262532.627 21653928.243 10 0 60571 26100.00000 0 4065169.332 -11042834.441 22638912.550 10 0 60571 27000.00000 0 5891310.930 -8881233.998 23184582.052 10 0 60571 27900.00000 0 7904739.563 -6837674.714 23280478.458 10 0 60571 28800.00000 0 10056092.194 -4964468.058 22924857.250 10 0 60571 29700.00000 0 12287690.887 -3304291.847 22124712.319 10 0 60571 30600.00000 0 14535780.766 -1888605.714 20895633.939 10 0 60571 31500.00000 0 16733034.972 -736547.910 19261503.197 10 0 60571 32400.00000 0 18811223.359 145642.378 17254028.880 10 0 60571 33300.00000 0 20703934.879 764654.746 14912135.459 10 0 60571 34200.00000 0 22349241.271 1139589.457 12281213.514 10 0 60571 35100.00000 0 23692191.927 1300914.251 9412246.427 10 0 60571 36000.00000 0 24687036.566 1288940.606 6360829.431 10 0 60571 36900.00000 0 25299083.332 1151883.900 3186099.330 10 0 60571 37800.00000 0 25506114.837 943589.320 -50405.053 10 0 60571 38700.00000 0 25299302.832 721019.432 -3285930.133 10 0 60571 39600.00000 0 24683582.864 541609.411 -6457719.843 10 0 60571 40500.00000 0 23677472.701 460601.661 -9504229.612 10 0 60571 41400.00000 0 22312341.466 528472.582 -12366318.625 10 0 60571 42300.00000 0 20631159.328 788560.604 -14988397.146 10 0 60571 43200.00000 0 18686779.316 1274996.266 -17319506.624 10 0 60571 44100.00000 0 16539822.379 2011022.656 -19314311.536 10 0 60571 45000.00000 0 14256253.440 3007778.261 -20933983.586 10 0 60571 45900.00000 0 11904749.126 4263594.955 -22146961.009 10 0 60571 46800.00000 0 9553966.516 5763842.426 -22929568.067 10 0 60571 47700.00000 0 7269826.560 7481327.360 -23266482.492 10 0 60571 48600.00000 0 5112925.124 9377232.584 -23151041.443 10 0 60571 49500.00000 0 3136179.445 11402558.579 -22585379.624 10 0 60571 50400.00000 0 1382808.041 13500008.597 -21580396.256 10 0 60571 51300.00000 0 -115271.770 15606239.796 -20155550.919 10 0 60571 52200.00000 0 -1338561.997 17654387.096 -18338491.469 10 0 60571 53100.00000 0 -2280571.213 19576754.568 -16164520.609 10 0 60571 54000.00000 0 -2947846.789 21307561.743 -13675910.919 10 0 60571 54900.00000 0 -3359451.394 22785629.410 -10921081.282 10 0 60571 55800.00000 0 -3545906.672 23956891.644 -7953650.700 10 0 60571 56700.00000 0 -3547649.734 24776627.845 -4831388.171 10 0 60571 57600.00000 0 -3413068.933 25211320.225 -1615079.628 10 0 60571 58500.00000 0 -3196203.483 25240057.975 1632665.076 10 0 60571 59400.00000 0 -2954205.833 24855428.643 4848640.804 10 0 60571 60300.00000 0 -2744675.831 24063859.130 7970286.338 10 0 60571 61200.00000 0 -2622981.074 22885392.228 10936908.834 10 0 60571 62100.00000 0 -2639678.144 21352908.705 13690868.788 10 0 60571 63000.00000 0 -2838144.843 19510828.421 16178701.831 10 0 60571 63900.00000 0 -3252524.174 17413345.928 18352155.268 10 0 60571 64800.00000 0 -3906067.189 15122275.388 20169119.430 10 0 60571 65700.00000 0 -4809944.632 12704595.654 21594436.332 10 0 60571 66600.00000 0 -5962577.269 10229798.452 22600570.850 10 0 60571 67500.00000 0 -7349512.825 7767150.242 23168132.590 10 0 60571 68400.00000 0 -8943854.583 5382981.256 23286239.551 10 0 60571 69300.00000 0 -10707223.648 3138113.603 22952717.766 10 0 60571 70200.00000 0 -12591214.868 1085534.016 22174134.074 10 0 60571 71100.00000 0 -14539286.053 -731593.708 20965662.151 10 0 60571 72000.00000 0 -16489002.298 -2281495.716 19350784.817 10 0 60571 72900.00000 0 -18374542.650 -3544871.268 17360838.460 10 0 60571 73800.00000 0 -20129365.506 -4515448.740 15034408.121 10 0 60571 74700.00000 0 -21688922.487 -5199992.866 12416584.446 10 0 60571 75600.00000 0 -22993308.345 -5617764.230 9558096.195 10 0 60571 76500.00000 0 -23989736.921 -5799454.700 6514334.305 10 0 60571 77400.00000 0 -24634740.039 -5785644.127 3344285.687 10 0 60571 78300.00000 0 -24895997.511 -5624843.617 109396.728 10 0 60571 79200.00000 0 -24753721.469 -5371207.953 -3127612.038 10 0 60571 80100.00000 0 -24201536.600 -5082013.668 -6303957.422 10 0 60571 81000.00000 0 -23246818.721 -4815009.218 -9358007.987 10 0 60571 81900.00000 0 -21910476.645 -4625749.226 -12230477.900 10 0 60571 82800.00000 0 -20226185.461 -4565025.586 -14865577.019 10 0 60571 83700.00000 0 -18239102.311 -4676504.327 -17212094.853 10 0 60571 84600.00000 0 -16004117.309 -4994668.607 -19224397.276 10 0 60571 85500.00000 0 -13583711.740 -5543155.538 -20863316.511 10 0 60572 0.00000 0 -11045512.302 -6333557.990 -22096916.932 10 0 60572 900.00000 0 -8459641.283 -7364743.707 -22901122.230 10 0 60572 1800.00000 0 -5895975.903 -8622720.822 -23260189.986 10 0 60572 2700.00000 0 -3421426.033 -10081058.507 -23167026.293 10 0 60572 3600.00000 0 -1097346.653 -11701845.773 -22623332.145 10 0 60572 4500.00000 0 1022808.729 -13437150.126 -21639578.884 10 0 60572 5400.00000 0 2895495.867 -15230916.191 -20234812.400 10 0 60572 6300.00000 0 4488665.238 -17021225.703 -18436289.148 10 0 60572 7200.00000 0 5782859.171 -18742824.693 -16278950.412 10 0 60572 8100.00000 0 6771775.147 -20329812.027 -13804744.441 10 0 60572 9000.00000 0 7462272.259 -21718376.242 -11061809.298 10 0 60572 9900.00000 0 7873821.325 -22849465.107 -8103532.239 10 0 60572 10800.00000 0 8037422.886 -23671274.863 -4987504.205 10 0 60572 11700.00000 0 7994039.999 -24141453.527 -1774390.291 10 0 60572 12600.00000 0 7792613.478 -24228924.567 1473260.860 10 0 60572 13500.00000 0 7487745.137 -23915253.465 4692244.539 10 0 60572 14400.00000 0 7137148.693 -23195499.128 7819939.220 10 0 60572 15300.00000 0 6798977.838 -22078514.184 10795532.333 10 0 60572 16200.00000 0 6529145.941 -20586681.718 13561207.730 10 0 60572 17100.00000 0 6378751.891 -18755099.977 16063271.122 10 0 60572 18000.00000 0 6391721.680 -16630249.918 18253191.311 10 0 60572 18900.00000 0 6602765.682 -14268202.150 20088537.141 10 0 60572 19800.00000 0 7035737.847 -11732438.851 21533792.563 10 0 60572 20700.00000 0 7702465.674 -9091382.040 22561034.869 10 0 60572 21600.00000 0 8602099.784 -6415731.252 23150464.108 10 0 60572 22500.00000 0 9721010.008 -3775721.065 23290774.667 10 0 60572 23400.00000 0 11033231.984 -1238411.730 22979363.018 10 0 60572 24300.00000 0 12501445.439 1134875.773 22222368.666 10 0 60572 25200.00000 0 14078443.340 3290875.269 21034548.281 10 0 60572 26100.00000 0 15709030.800 5186347.091 19438985.883 10 0 60572 27000.00000 0 17332275.028 6789625.872 17466644.815 10 0 60572 27900.00000 0 18884013.017 8081681.915 15155769.887 10 0 60572 28800.00000 0 20299513.001 9056653.592 12551150.832 10 0 60572 29700.00000 0 21516179.191 9721830.064 9703260.580 10 0 60572 30600.00000 0 22476187.300 10097086.224 6667284.299 10 0 60572 31500.00000 0 23128940.955 10213794.433 3502057.237 10 0 60572 32400.00000 0 23433246.278 10113259.312 268931.270 10 0 60572 33300.00000 0 23359113.335 9844741.738 -2969408.444 10 0 60572 34200.00000 0 22889108.462 9463155.402 -6150154.136 10 0 60572 35100.00000 0 22019200.009 9026533.067 -9211590.158 10 0 60572 36000.00000 0 20759061.031 8593369.435 -12094288.349 10 0 60572 36900.00000 0 19131815.083 8219952.847 -14742260.810 10 0 60572 37800.00000 0 17173234.453 7957798.639 -17104047.651 10 0 60572 38700.00000 0 14930423.042 7851292.828 -19133718.549 10 0 60572 39600.00000 0 12460037.673 7935646.116 -20791768.502 10 0 60572 40500.00000 0 9826120.854 8235245.254 -22045890.306 10 0 60572 41400.00000 0 7097634.314 8762472.254 -22871608.575 10 0 60572 42300.00000 0 4345795.188 9517042.344 -23252762.737 10 0 60572 43200.00000 0 1641325.051 10485889.891 -23181829.319 10 0 60572 44100.00000 0 -948274.274 11643608.475 -22660076.797 10 0 60572 45000.00000 0 -3361305.081 12953428.015 -21697549.443 10 0 60572 45900.00000 0 -5544211.001 14368689.130 -20312879.832 10 0 60572 46800.00000 0 -7453569.893 15834753.812 -18532932.931 10 0 60572 47700.00000 0 -9057659.442 17291272.791 -16392288.020 10 0 60572 48600.00000 0 -10337530.336 18674714.593 -13932567.967 10 0 60572 49500.00000 0 -11287542.554 19921049.804 -11201628.500 10 0 60572 50400.00000 0 -11915342.907 20968477.089 -8252623.210 10 0 60572 51300.00000 0 -12241285.686 21760075.384 -5142962.674 10 0 60572 52200.00000 0 -12297321.982 22246269.512 -1933188.535 10 0 60572 53100.00000 0 -12125405.908 22387004.265 1314214.681 10 0 60572 54000.00000 0 -11775486.636 22153534.288 4536045.802 10 0 60572 54900.00000 0 -11303172.772 21529753.561 7669626.268 10 0 60572 55800.00000 0 -10767169.509 20513007.943 10654027.136 10 0 60572 56700.00000 0 -10226598.481 19114356.381 13431258.975 10 0 60572 57600.00000 0 -9738314.848 17358269.921 15947400.881 10 0 60572 58500.00000 0 -9354335.930 15281781.486 18153646.312 10 0 60572 59400.00000 0 -9119490.384 12933122.548 20007245.591 10 0 60572 60300.00000 0 -9069387.176 10369904.160 21472327.308 10 0 60572 61200.00000 0 -9228789.598 7656918.666 22520583.564 10 0 60572 62100.00000 0 -9610462.183 4863653.771 23131806.883 10 0 60572 63000.00000 0 -10214538.308 2061622.139 23294269.665 10 0 60572 63900.00000 0 -11028434.314 -678383.127 23004939.996 10 0 60572 64800.00000 0 -12027313.240 -3288994.226 22269530.735 10 0 60572 65700.00000 0 -13175078.377 -5708824.725 21102381.706 10 0 60572 66600.00000 0 -14425855.032 -7884771.467 19526177.745 10 0 60572 67500.00000 0 -15725898.677 -9773968.551 17571508.206 10 0 60572 68400.00000 0 -17015850.118 -11345313.983 15276276.197 10 0 60572 69300.00000 0 -18233243.878 -12580507.182 12684968.543 10 0 60572 70200.00000 0 -19315165.413 -13474555.628 9847799.901 10 0 60572 71100.00000 0 -20200946.480 -14035730.793 6819746.822 10 0 60572 72000.00000 0 -20834786.059 -14284976.173 3659489.719 10 0 60572 72900.00000 0 -21168187.143 -14254792.947 428282.539 10 0 60572 73800.00000 0 -21162107.016 -13987650.448 -2811228.559 10 0 60572 74700.00000 0 -20788730.342 -13533988.536 -5996214.957 10 0 60572 75600.00000 0 -20032789.885 -12949895.999 -9064880.585 10 0 60572 76500.00000 0 -18892378.371 -12294562.801 -11957658.731 10 0 60572 77400.00000 0 -17379216.181 -11627613.585 -14618367.393 10 0 60572 78300.00000 0 -15518362.166 -11006434.891 -16995300.720 10 0 60572 79200.00000 0 -13347378.153 -10483608.952 -19042235.282 10 0 60572 80100.00000 0 -10914980.506 -10104562.548 -20719331.477 10 0 60572 81000.00000 0 -8279233.552 -9905530.467 -21993912.479 10 0 60572 81900.00000 0 -5505358.808 -9911920.000 -22841105.429 10 0 60572 82800.00000 0 -2663250.130 -10137146.142 -23244332.175 10 0 60572 83700.00000 0 175202.801 -10581987.500 -23195639.695 10 0 60572 84600.00000 0 2938872.076 -11234491.043 -22695863.346 10 0 60572 85500.00000 0 5560116.028 -12070430.801 -21754619.195 99